#timestamp,LO_Frequency,Hit 
1499810415.8,286047001.7,N
1499810435.9,286047004.4,N
1499810455.7,286047002.3,N
1499810475.5,286047001.7,N
1499810495.4,286047002.2,N
1499810515.2,286046999.7,N
1499810535.0,286046999.8,N
1499810535.9,286046999.8,N
1499810555.8,286047002.0,N
1499810575.6,286047003.7,N
1499810595.4,286047002.7,N
1499810615.3,286047000.4,N
1499810635.1,286047000.0,N
1499810636.0,286047000.0,N
1499810655.8,286047002.4,N
1499810675.7,286047001.0,N
1499810695.3,286047002.8,N
1499810715.2,286047002.5,N
1499810735.0,286047002.3,N
1499810735.9,286047002.3,N
1499810755.8,286047002.4,N
1499810775.6,286046999.9,N
1499810795.4,286047002.5,N
1499810815.3,286047002.3,N
1499810835.1,286047000.2,N
1499810836.0,286047000.2,N
1499810855.8,286047000.9,N
1499810875.7,286047000.6,N
1499810895.5,286047000.0,N
1499810915.3,286047000.0,N
1499810935.1,286046998.8,N
1499810955.9,286046997.1,N
1499810975.7,286046998.3,N
1499810995.5,286047000.2,N
1499811015.4,286047001.0,N
1499811035.2,286047000.1,N
1499811055.0,286047001.0,N
1499811075.6,286047000.1,N
1499811095.4,286047000.5,N
1499811115.2,286046999.7,N
1499811135.1,286047000.0,N
1499811136.0,286047000.0,N
1499811155.8,286046999.7,N
1499811175.6,286047002.3,N
1499811195.5,286047001.2,N
1499811215.3,286047001.1,N
1499811235.1,286047000.1,N
1499811255.9,286047002.1,N
1499811275.7,286047003.9,N
1499811295.5,286047003.5,N
1499811315.3,286047001.7,N
1499811335.2,286047005.3,Y
1499811355.0,286047005.1,Y
1499811375.2,286047005.1,Y
1499811395.0,286047004.0,N
1499811395.9,286047004.0,N
1499811415.8,286047002.3,N
1499811435.6,286046998.5,N
1499811455.4,286047000.3,N
1499811475.3,286046998.1,N
1499811495.1,286046999.0,N
1499811496.0,286046999.0,N
1499811515.8,286046999.4,N
1499811535.3,286046999.2,N
1499811555.2,286047000.6,N
1499811575.9,286047000.6,N
1499811595.7,286047001.0,N
1499811615.6,286046999.4,N
1499811635.4,286047001.0,N
1499811655.2,286046998.6,N
1499811675.1,286047001.1,N
1499811676.0,286047001.1,N
1499811695.8,286046998.5,N
1499811715.6,286046998.1,N
1499811735.4,286047002.7,N
1499811755.3,286047001.5,N
1499811775.1,286047001.8,N
1499811795.8,286047001.7,N
1499811815.7,286047003.2,N
1499811835.5,286047001.7,N
1499811855.3,286047001.5,N
1499811875.2,286047001.3,N
1499811895.9,286047004.1,N
1499811915.5,286047003.2,N
1499811935.3,286047005.3,N
1499811955.1,286047007.2,Y
1499811975.9,286047005.6,N
1499811995.7,286047004.1,N
1499812015.5,286047003.7,N
1499812035.4,286047001.9,N
1499812055.2,286047002.0,N
1499812075.0,286047004.4,N
1499812075.9,286047004.4,N
1499812095.7,286047003.2,N
1499812115.6,286047003.0,N
1499812135.4,286047007.0,Y
1499812155.9,286047004.2,N
1499812175.7,286047003.7,N
1499812195.5,286047003.0,N
1499812215.6,286047001.9,N
1499812235.4,286047000.6,N
1499812255.3,286046998.4,N
1499812275.3,286046999.5,N
1499812295.1,286046998.0,N
1499812315.8,286046999.2,N
1499812335.7,286047000.8,N
1499812355.5,286047000.4,N
1499812375.3,286047001.0,N
1499812395.2,286047001.0,N
1499812415.9,286047000.3,N
1499812435.7,286047001.1,N
1499812455.6,286047000.5,N
1499812475.5,286047001.1,N
1499812495.3,286047002.9,N
1499812515.1,286047003.9,N
1499812535.9,286047001.6,N
1499812555.7,286047001.4,N
1499812575.5,286047001.6,N
1499812595.3,286047004.1,N
1499812615.2,286047002.8,N
1499812635.0,286047000.2,N
1499812635.9,286047000.2,N
1499812655.7,286047002.8,N
1499812675.6,286047002.6,N
1499812695.4,286047000.0,N
1499812715.2,286047000.3,N
1499812735.1,286046999.7,N
1499812736.0,286046999.7,N
1499812755.8,286047000.5,N
1499812775.6,286047001.6,N
1499812795.5,286047001.7,N
1499812815.5,286047002.3,N
1499812835.4,286047001.4,N
1499812855.2,286047002.6,N
1499812875.0,286047003.0,N
1499812875.9,286047003.0,N
1499812895.8,286047003.3,N
1499812915.6,286047003.6,N
1499812935.4,286047004.4,N
1499812955.3,286047004.3,N
1499812975.1,286047002.4,N
1499812995.5,286047000.1,N
1499813015.3,286047001.7,N
1499813035.2,286047002.5,N
1499813055.0,286047001.6,N
1499813055.9,286047001.6,N
1499813075.8,286047007.1,Y
1499813095.6,286047002.6,N
1499813115.4,286047004.1,N
1499813135.3,286047003.3,N
1499813155.2,286047002.9,N
1499813175.0,286047001.8,N
1499813175.9,286047001.8,N
1499813195.7,286047002.2,N
1499813215.6,286047000.1,N
1499813235.4,286047003.6,N
1499813255.2,286047004.3,N
1499813275.1,286047000.6,N
1499813276.0,286047000.6,N
1499813295.8,286046998.1,N
1499813315.6,286047000.2,N
1499813335.5,286047003.8,N
1499813355.3,286047003.1,N
1499813375.1,286047005.2,N
1499813395.8,286047003.0,N
1499813415.7,286047004.1,N
1499813435.6,286047002.5,N
1499813455.4,286047003.3,N
1499813475.2,286047003.0,N
1499813495.0,286047002.8,N
1499813496.0,286047002.8,N
1499813515.8,286046999.8,N
1499813535.6,286046999.9,N
1499813555.4,286047000.6,N
1499813575.3,286047000.0,N
1499813595.1,286046999.7,N
1499813615.8,286046999.7,N
1499813635.7,286046999.9,N
1499813655.5,286047000.4,N
1499813675.3,286047000.4,N
1499813695.2,286047000.5,N
1499813715.9,286047002.8,N
1499813735.7,286047002.9,N
1499813755.5,286047003.5,N
1499813775.4,286047003.8,N
1499813795.1,286047002.9,N
1499813815.9,286047005.2,Y
1499813835.7,286047003.8,N
1499813855.5,286047004.0,N
1499813875.3,286047001.7,N
1499813895.2,286047001.9,N
1499813915.0,286047003.9,N
1499813915.9,286047003.9,N
1499813935.7,286047004.3,N
1499813955.6,286047000.5,N
1499813975.4,286047002.8,N
1499813995.2,286047000.0,N
